Wind_Speed
8 7 7 8 8 7 6 5 5 6 6 5 5 4 2 3 4 5 3 5 5 6 7 4 5 5 5 4 4 3 5 7 10 8 4 2 7 3 3 3 5 7 7 6 4
9 10 11 11 11 11 11 11 10 9 8 7 5 4 3 5 6 5 5 7 9 10 9 8 8 8 6 4 5 4 7 7 10 6 6 7 9 8 2 5 7 7 8 9 7
7 8 8 8 8 10 10 10 10 9 8 7 7 7 7 8 8 7 8 10 11 12 13 13 12 11 8 5 6 5 3 8 10 9 6 4 11 4 5 8 8 10 9 11 10
5 4 5 5 6 6 6 6 6 6 6 7 7 8 9 10 10 11 12 12 13 14 15 15 14 11 9 6 4 4 4 5 8 9 9 5 8 5 6 8 9 10 10 11 11
1 1 2 2 2 2 1 1 2 3 6 7 9 9 9 10 11 13 14 14 15 16 16 16 13 9 7 8 4 4 6 6 6 7 5 8 6 5 7 9 11 11 10 10 11
4 4 4 5 5 5 5 5 6 6 7 8 9 9 10 10 11 13 14 15 17 17 18 16 11 7 4 7 7 5 5 6 6 8 7 3 10 3 2 8 10 10 11 10 10
9 9 9 8 9 9 10 11 10 11 11 9 9 9 11 12 13 13 16 17 17 17 17 15 9 6 6 9 8 6 5 5 4 6 6 3 5 7 3 6 9 8 10 9 9
11 11 11 11 11 11 11 12 13 13 13 12 11 11 12 13 14 15 15 18 17 17 16 12 6 4 7 9 7 7 6 9 5 3 1 3 1 0 8 9 9 7 8 8 6
10 11 12 12 12 12 12 12 12 13 14 15 15 15 14 14 15 17 17 17 16 16 14 10 6 6 6 9 8 10 16 5 4 3 5 2 1 3 7 6 9 8 6 7 6
13 13 14 14 14 13 13 13 13 14 15 15 16 16 16 14 15 14 16 17 14 14 12 10 8 7 7 6 8 10 11 5 5 4 4 6 5 8 12 6 10 10 9 8 7
13 13 12 12 11 10 9 8 8 10 11 12 12 14 15 16 15 13 16 15 13 12 9 7 8 7 5 7 5 13 9 10 9 5 4 5 7 8 10 7 9 11 7 6 9
20 19 17 17 16 14 12 7 9 10 10 10 10 12 12 13 13 13 14 13 11 10 7 9 7 5 5 5 3 7 11 11 10 9 6 8 7 11 11 13 8 6 3 8 11
27 26 24 23 22 19 15 12 13 13 12 11 11 12 12 12 13 13 12 13 8 6 9 10 8 6 2 1 8 10 13 13 13 14 9 6 4 6 9 13 12 9 8 3 10
21 24 27 29 28 27 24 20 20 18 18 17 14 14 14 13 14 13 12 10 6 8 9 9 7 6 1 5 10 9 12 11 14 20 13 6 3 5 11 12 13 10 11 10 8
16 18 19 20 22 24 27 26 24 21 19 18 16 17 15 13 15 13 11 9 6 5 4 6 6 3 4 10 13 15 18 12 8 10 9 4 5 8 12 13 10 13 10 9 8
16 20 18 19 19 17 20 25 24 22 20 18 16 16 13 12 12 10 9 8 6 3 4 8 5 4 12 11 17 18 11 11 9 7 6 5 8 7 4 10 14 12 13 11 9
20 21 19 20 18 18 18 20 25 24 21 20 18 16 15 12 11 9 8 8 5 4 2 12 14 9 6 6 15 18 18 15 8 11 12 8 8 6 5 6 5 7 11 12 14
20 20 17 18 14 11 9 12 19 27 24 21 19 18 17 14 12 9 8 9 8 7 7 15 17 12 9 9 8 14 17 12 10 11 7 8 5 10 7 9 4 2 1 5 8
16 12 10 11 13 11 11 9 12 19 23 24 23 22 20 18 17 14 10 9 9 10 13 15 12 11 9 12 14 14 18 13 15 11 7 5 5 6 9 9 7 4 1 3 4
10 8 7 9 13 15 15 15 14 15 18 23 26 25 22 22 22 18 14 11 12 13 13 13 12 8 6 8 11 15 16 17 16 13 13 7 2 4 6 13 5 7 6 7 3
9 8 7 5 6 10 12 15 20 22 21 21 23 23 23 23 20 16 14 17 17 18 19 17 14 12 9 5 2 4 9 12 16 18 15 13 6 4 5 1 7 9 7 9 7
10 7 7 8 10 11 11 12 14 19 23 26 27 26 27 25 25 24 19 21 19 19 16 17 20 18 12 14 11 10 9 13 20 21 18 21 15 11 11 6 2 7 10 9 3
13 12 12 13 11 12 12 15 17 18 20 17 26 31 33 31 26 26 22 21 21 20 19 17 16 15 16 18 18 13 10 8 12 19 21 22 18 13 13 13 13 13 12 13 12
17 17 17 17 17 17 17 15 16 16 19 21 25 31 37 39 38 35 29 25 23 23 21 23 24 24 21 19 19 19 19 16 15 17 16 17 19 19 17 12 15 13 11 15 18
17 19 21 22 21 21 20 20 20 22 22 19 21 25 30 33 39 43 39 31 30 29 28 28 28 28 23 26 24 24 21 20 21 21 19 19 21 20 17 12 12 16 13 10 10
22 23 24 23 24 27 27 25 24 24 26 26 25 24 25 28 31 34 35 36 37 35 39 34 33 33 31 30 31 27 22 22 23 22 23 22 16 17 21 16 17 17 13 12 14
27 29 29 29 30 30 29 31 29 29 32 31 31 30 29 29 28 29 30 30 31 36 41 44 43 39 37 34 35 34 30 29 27 22 22 23 18 15 15 16 19 17 13 12 13
Wind_Direction
82 91 96 98 100 106 115 118 108 97 92 85 82 77 49 1 342 348 294 305 299 303 299 274 262 263 263 274 258 260 289 320 315 292 232 196 186 271 234 220 168 178 157 133 130
82 92 94 95 94 96 98 97 92 86 81 74 67 57 30 3 353 3 336 314 306 304 299 288 278 275 272 273 261 244 320 307 291 259 251 244 184 204 185 172 158 183 161 143 157
87 97 94 91 96 98 98 95 90 78 67 53 40 25 13 3 355 334 334 308 307 298 296 295 292 297 308 311 280 288 321 290 301 303 283 190 199 188 170 160 165 181 169 151 166
82 97 101 103 115 111 104 95 77 60 35 18 10 5 4 358 352 344 334 318 308 296 292 290 294 307 310 300 297 43 303 296 312 321 298 198 175 151 152 144 178 184 172 165 171
74 162 155 157 174 179 178 21 27 357 345 344 344 344 352 354 354 350 340 325 309 299 297 291 300 298 306 311 314 343 283 285 322 330 338 196 189 168 145 162 176 178 180 173 173
280 265 254 243 246 253 264 277 292 305 314 322 330 331 337 344 349 348 334 323 308 303 301 304 312 301 273 263 275 258 281 279 314 322 336 227 200 203 174 178 174 171 175 176 171
275 272 266 262 258 259 266 271 277 286 294 300 307 316 322 330 336 343 329 317 305 300 300 311 342 297 263 242 254 231 214 266 355 348 351 298 255 248 234 239 205 172 167 181 174
274 272 274 273 274 275 274 273 274 275 280 283 287 292 304 315 321 330 325 314 299 295 302 321 332 283 232 234 236 219 205 182 258 278 21 335 332 84 237 219 226 178 161 183 194
279 278 277 275 275 278 279 280 281 281 280 280 280 283 289 300 310 319 323 315 298 290 301 317 305 266 263 226 213 196 169 201 221 230 146 184 225 234 207 218 205 221 216 212 216
274 271 271 272 274 275 277 279 282 279 278 279 279 279 280 286 299 309 318 312 301 293 296 293 292 302 270 222 230 205 222 153 175 225 169 158 145 126 157 202 213 209 215 216 219
273 272 270 268 271 276 287 302 291 278 276 278 276 276 279 287 295 300 312 308 295 293 275 263 275 289 273 227 215 214 190 175 180 202 185 164 156 152 157 168 221 215 202 216 208
267 268 266 268 269 270 276 289 286 284 281 279 279 281 282 286 294 296 312 304 296 290 262 236 249 271 264 213 225 196 206 185 170 162 174 187 175 163 149 165 175 172 192 215 194
266 264 261 265 265 266 266 266 272 281 279 277 271 279 283 280 290 293 305 294 289 270 222 219 233 246 260 250 187 178 180 192 182 179 160 137 185 218 182 164 174 183 196 201 187
272 267 266 264 264 264 263 264 264 266 271 271 270 272 272 278 284 286 291 293 299 255 240 228 243 260 341 229 196 189 169 176 192 188 164 159 208 256 189 169 167 173 176 164 169
280 279 276 271 269 265 260 259 258 259 262 260 260 266 266 275 284 282 294 298 280 237 195 217 244 316 292 233 200 162 178 166 178 158 168 194 227 222 182 195 182 183 176 162 161
281 282 277 270 268 266 259 254 249 246 253 250 251 257 266 278 271 271 282 297 267 239 219 164 105 176 242 242 228 215 197 187 199 180 190 197 202 195 200 222 229 211 206 191 186
289 287 274 270 269 268 270 260 243 240 242 246 247 248 259 262 249 256 267 276 202 163 158 156 134 151 169 211 227 235 235 241 216 199 201 200 210 248 194 97 110 191 214 204 195
301 298 280 263 258 263 279 274 245 238 238 247 252 248 252 242 215 214 224 176 152 137 147 167 154 179 214 203 217 230 233 235 215 209 200 201 216 245 194 127 92 98 178 200 202
313 317 282 256 249 254 268 278 254 240 239 242 249 245 246 244 212 218 207 176 147 126 133 146 161 195 217 235 238 229 220 215 218 206 219 242 326 259 231 147 136 89 106 160 191
318 328 301 270 259 262 268 261 259 251 242 242 242 243 244 250 236 212 194 172 142 145 170 179 176 203 234 262 251 230 199 213 224 219 234 236 112 120 155 188 173 114 78 86 31
323 308 314 290 278 271 273 266 257 253 258 253 258 239 239 244 241 213 208 185 189 185 180 184 196 201 212 211 332 271 220 222 227 229 238 244 217 234 232 304 185 148 121 12 357
315 305 300 274 285 276 273 274 269 263 260 262 257 262 249 243 247 242 243 217 216 209 212 207 202 197 206 211 206 229 236 233 231 229 244 257 247 257 260 299 326 230 273 298 139
307 302 292 294 293 279 268 265 265 264 260 263 257 261 261 261 265 264 258 244 230 225 231 241 246 235 236 225 220 231 244 258 241 239 248 256 266 268 275 282 279 269 296 278 272
292 290 286 283 281 281 279 283 277 272 265 257 250 258 260 261 264 265 266 268 271 262 256 249 249 250 260 267 249 239 234 244 257 262 270 274 280 278 281 296 291 288 280 264 264
304 296 285 278 271 268 269 271 271 268 270 268 264 258 257 259 263 265 265 257 254 251 248 259 268 266 271 263 260 254 245 246 256 254 257 263 272 278 279 290 298 284 266 262 272
301 299 292 291 279 265 264 265 264 264 264 266 267 267 264 261 256 262 264 262 256 253 256 249 258 265 268 270 257 247 245 250 257 260 250 256 260 276 262 275 301 297 288 288 289
295 291 291 287 277 273 269 263 259 259 262 262 264 263 264 263 261 257 256 257 254 252 251 254 262 255 257 264 262 249 249 255 262 269 274 263 260 260 264 286 300 292 274 278 290
Height
5878 5878 5878 5878 5878 5878 5878 5879 5879 5880 5880 5880 5880 5880 5880 5880 5880 5880 5880 5880 5880 5880 5880 5882 5882 5882 5882 5882 5882 5882 5881 5880 5880 5880 5879 5878 5879 5878 5879 5879 5879 5879 5878 5878 5879
5881 5880 5881 5881 5880 5880 5880 5881 5881 5881 5881 5881 5881 5881 5881 5881 5881 5881 5881 5879 5879 5879 5879 5880 5881 5881 5882 5883 5882 5882 5881 5880 5880 5879 5878 5876 5877 5877 5878 5877 5878 5879 5878 5877 5879
5883 5883 5883 5883 5883 5883 5883 5883 5883 5883 5883 5883 5883 5882 5882 5881 5881 5881 5880 5879 5879 5878 5878 5878 5879 5880 5881 5883 5882 5881 5880 5881 5879 5877 5876 5875 5876 5875 5876 5876 5878 5879 5878 5878 5879
5885 5885 5884 5885 5885 5885 5885 5885 5885 5884 5884 5883 5883 5883 5882 5882 5882 5880 5879 5878 5877 5876 5876 5877 5878 5879 5880 5880 5880 5880 5880 5880 5878 5877 5875 5874 5875 5875 5875 5875 5877 5879 5879 5879 5880
5886 5886 5886 5885 5885 5885 5885 5885 5885 5885 5884 5884 5883 5883 5883 5882 5881 5879 5878 5877 5875 5874 5874 5874 5877 5877 5878 5878 5879 5879 5879 5879 5877 5876 5877 5877 5875 5875 5874 5876 5877 5878 5879 5880 5881
5886 5886 5886 5885 5885 5885 5885 5885 5884 5884 5884 5883 5883 5882 5882 5882 5880 5879 5877 5876 5874 5872 5872 5873 5875 5876 5876 5876 5877 5878 5879 5879 5878 5876 5875 5875 5874 5875 5875 5876 5876 5878 5879 5879 5881
5884 5884 5884 5884 5884 5884 5884 5883 5883 5883 5882 5882 5882 5881 5880 5880 5879 5878 5876 5874 5872 5871 5870 5872 5874 5874 5874 5873 5874 5875 5877 5878 5878 5877 5875 5876 5875 5874 5875 5875 5876 5877 5879 5880 5881
5882 5882 5882 5882 5882 5882 5882 5881 5881 5881 5881 5880 5880 5879 5879 5878 5877 5876 5874 5872 5870 5869 5869 5871 5872 5871 5871 5871 5872 5873 5874 5876 5876 5875 5874 5875 5874 5873 5875 5876 5876 5877 5879 5880 5881
5880 5880 5880 5880 5880 5880 5880 5879 5879 5879 5878 5878 5878 5877 5877 5875 5875 5873 5872 5870 5868 5867 5868 5870 5869 5869 5870 5870 5870 5871 5871 5873 5874 5875 5873 5875 5874 5874 5875 5877 5876 5877 5878 5879 5880
5877 5877 5877 5876 5876 5876 5876 5877 5877 5876 5875 5875 5875 5876 5874 5873 5873 5871 5870 5867 5867 5866 5867 5868 5867 5868 5869 5868 5869 5870 5872 5873 5873 5876 5875 5873 5873 5875 5877 5877 5877 5876 5877 5878 5878
5875 5874 5874 5873 5873 5873 5874 5875 5875 5873 5872 5872 5871 5870 5870 5870 5870 5869 5868 5866 5865 5865 5865 5865 5866 5867 5866 5866 5867 5868 5871 5870 5871 5873 5875 5874 5873 5874 5875 5876 5877 5877 5877 5877 5878
5871 5871 5871 5870 5870 5871 5872 5872 5871 5870 5870 5869 5868 5867 5867 5867 5867 5866 5865 5865 5864 5864 5864 5864 5865 5866 5865 5865 5866 5867 5869 5869 5871 5871 5873 5873 5874 5873 5873 5873 5874 5875 5876 5877 5876
5865 5865 5866 5865 5866 5867 5869 5869 5868 5867 5867 5867 5865 5865 5865 5865 5864 5863 5864 5862 5862 5861 5861 5862 5864 5865 5864 5865 5866 5867 5867 5868 5870 5870 5872 5874 5874 5874 5874 5872 5873 5873 5874 5875 5875
5857 5857 5858 5859 5861 5862 5863 5865 5864 5864 5863 5864 5863 5863 5862 5862 5862 5861 5861 5861 5859 5859 5859 5860 5862 5863 5864 5864 5867 5866 5866 5866 5867 5869 5870 5872 5873 5873 5874 5873 5873 5872 5872 5873 5873
5853 5852 5853 5853 5853 5854 5856 5857 5858 5860 5860 5860 5860 5859 5860 5861 5860 5858 5858 5858 5857 5858 5859 5860 5861 5864 5865 5865 5865 5866 5865 5865 5866 5868 5870 5871 5872 5870 5872 5872 5872 5872 5872 5872 5873
5849 5847 5848 5847 5847 5848 5848 5849 5852 5855 5855 5855 5856 5856 5857 5857 5856 5855 5856 5856 5856 5856 5856 5857 5860 5863 5864 5865 5864 5865 5865 5865 5866 5868 5870 5870 5872 5872 5872 5871 5870 5872 5871 5871 5872
5844 5842 5842 5841 5842 5843 5843 5844 5847 5848 5851 5851 5853 5854 5853 5854 5854 5854 5854 5855 5855 5855 5855 5857 5859 5863 5864 5865 5864 5865 5865 5867 5869 5868 5868 5869 5871 5871 5871 5869 5869 5870 5871 5871 5870
5839 5837 5836 5836 5837 5838 5839 5839 5840 5841 5846 5848 5849 5851 5852 5852 5852 5851 5853 5852 5853 5853 5854 5856 5859 5863 5864 5864 5863 5863 5863 5865 5866 5867 5869 5869 5871 5869 5871 5870 5870 5870 5870 5870 5870
5836 5834 5832 5833 5834 5835 5837 5837 5836 5837 5841 5844 5845 5847 5850 5850 5850 5850 5851 5852 5852 5853 5855 5857 5860 5862 5862 5862 5862 5861 5861 5864 5864 5865 5867 5869 5870 5869 5871 5871 5871 5871 5871 5870 5869
5834 5832 5831 5831 5831 5833 5834 5834 5834 5834 5836 5838 5840 5842 5845 5847 5849 5848 5848 5851 5851 5852 5853 5856 5858 5860 5860 5859 5858 5858 5861 5862 5862 5864 5866 5868 5870 5869 5870 5872 5874 5874 5872 5872 5872
5832 5832 5830 5830 5829 5830 5830 5830 5830 5830 5832 5834 5834 5838 5841 5842 5846 5847 5849 5850 5849 5849 5850 5852 5855 5859 5859 5859 5858 5858 5859 5860 5861 5863 5864 5866 5869 5870 5871 5872 5874 5875 5874 5874 5874
5830 5830 5829 5828 5829 5827 5827 5826 5827 5827 5828 5830 5831 5832 5835 5838 5840 5843 5847 5846 5847 5848 5850 5852 5851 5853 5856 5856 5857 5857 5858 5859 5859 5861 5862 5863 5867 5869 5870 5872 5874 5875 5874 5875 5874
5827 5827 5826 5825 5825 5824 5824 5824 5823 5823 5824 5826 5827 5827 5828 5830 5835 5837 5839 5844 5845 5846 5847 5849 5850 5851 5852 5855 5854 5854 5856 5857 5857 5858 5859 5861 5864 5866 5867 5869 5870 5872 5873 5873 5871
5824 5823 5822 5822 5821 5821 5820 5821 5820 5819 5818 5820 5822 5822 5823 5825 5826 5829 5833 5837 5840 5841 5843 5844 5845 5847 5848 5851 5852 5851 5853 5854 5854 5856 5857 5858 5860 5862 5863 5864 5864 5865 5867 5866 5866
5819 5818 5816 5817 5816 5815 5815 5815 5814 5814 5814 5815 5815 5816 5817 5819 5820 5821 5826 5830 5832 5834 5834 5836 5839 5841 5842 5844 5845 5846 5848 5849 5850 5852 5853 5856 5856 5858 5859 5860 5862 5861 5860 5859 5860
5814 5812 5810 5809 5808 5808 5808 5808 5808 5807 5807 5808 5808 5809 5809 5810 5813 5813 5817 5822 5825 5826 5826 5828 5830 5833 5836 5838 5839 5840 5842 5843 5845 5846 5849 5850 5853 5853 5855 5857 5856 5854 5854 5853 5853
5808 5804 5802 5801 5799 5798 5799 5798 5800 5799 5799 5800 5800 5801 5802 5802 5803 5805 5806 5810 5813 5817 5819 5821 5822 5823 5826 5831 5831 5832 5836 5838 5840 5841 5843 5844 5847 5849 5851 5852 5851 5851 5849 5848 5848